カタログに戻る

YUNHAI 1

運用中科学SSO
NORAD 41857·PAYLOAD·🇨🇳 China

打ち上げ Nov 11, 2016 から Jiuquan Satellite Launch Center

Loading…

次のパス (今後24時間)

TLE

最新Source: Space-Track

元期: Sep 14, 2026, 13:30 UTC

1 41857U 16068A   26257.56311009  .00000185  00000-0  84312-4 0  9999
2 41857  98.5863 267.7523 0003923 115.9947 244.1641 14.32514071514629

AllMySatでYUNHAI 1をリアルタイム追跡

Download on the App Store